Fort Drum, NY

6:14 PM EDT on March 24, 2017 (GMT -0400)
Wheeler-Sack Army Air Field

Weather History for KGTB - October, 2011

Change the Weather History Date:

Sunday, October 2, 2011

  Actual Average Record
Temperature  
Mean Temperature 46 °F -  
Max Temperature 50 °F 59 °F 75 °F (2000)
Min Temperature 41 °F 40 °F 28 °F (1997)
Degree Days  
Heating Degree Days 20    
Moisture  
Dew Point 45 °F    
Average Humidity 98    
Maximum Humidity 100    
Minimum Humidity 94    
Precipitation  
Precipitation 0.01 in - - ()
Sea Level Pressure  
Sea Level Pressure 29.93 in    
Wind  
Wind Speed 13 mph (NE)    
Max Wind Speed 17 mph    
Max Gust Speed 23 mph    
Visibility 9 miles    
Events      
Averages and records for this station are not official NWS values.
T = Trace of Precipitation, MM = Missing Value Source: NWS Daily Summary

Daily Weather History Graph

Daily Weather History Graph

Search for Another Location

Airport or City:

Trip Planner

Search our weather history database for the weather conditions in past years. The results will help you decide how hot, cold, wet, or windy it might be!

Date:

Astronomy

Oct. 02, 2011 Rise Set
Actual Time 7:01 AM EDT 6:42 PM EDT
Civil Twilight 6:32 AM EDT 7:11 PM EDT
Nautical Twilight 5:59 AM EDT 7:44 PM EDT
Astronomical Twilight 5:25 AM EDT 8:18 PM EDT
Moon 1:18 PM EDT (10/2) 10:26 PM EDT (10/2)
Length of Visible Light 12h 38m
Length of Day
11h 41m
Waxing Crescent, 34% of the Moon is Illuminated
Oct 2
Waxing Crescent
Oct 3
First Quarter
Oct 11
Full
Oct 19
Last Quarter
Oct 26
New

Hourly Weather History & Observations

Time (EDT) Temp. Windchill Dew Point Humidity Pressure Visibility Wind Dir Wind Speed Gust Speed Precip Events Conditions
12:02 AM 41.0 °F 34.7 °F 41.0 °F 100% 29.98 in 10.0 mi NNE 10.4 mph 19.6 mph N/A   Overcast
12:06 AM 41.0 °F 34.3 °F 41.0 °F 100% 29.97 in 10.0 mi NNE 11.5 mph - N/A   Overcast
12:10 AM 41.0 °F 34.3 °F 41.0 °F 100% 29.97 in 10.0 mi NNE 11.5 mph - N/A   Overcast
12:34 AM 41.0 °F 32.5 °F 41.0 °F 100% 29.96 in 10.0 mi NNE 17.3 mph 23.0 mph N/A   Overcast
12:37 AM 41.0 °F 34.3 °F 41.0 °F 100% 29.96 in 10.0 mi NNE 11.5 mph 23.0 mph N/A   Overcast
12:55 AM 41.2 °F 33.0 °F 41.0 °F 99% 29.96 in 10.0 mi NNE 16.1 mph 20.7 mph 0.00 in   Overcast
1:03 AM 41.0 °F 34.3 °F 41.0 °F 100% 29.96 in 10.0 mi NNE 11.5 mph 20.7 mph N/A   Overcast
1:16 AM 41.0 °F 34.7 °F 41.0 °F 100% 29.96 in 9.0 mi NNE 10.4 mph - N/A   Overcast
1:27 AM 41.0 °F 34.7 °F 41.0 °F 100% 29.96 in 7.0 mi NNE 10.4 mph - N/A   Overcast
1:39 AM 41.0 °F 33.5 °F 41.0 °F 100% 29.96 in 4.0 mi NNE 13.8 mph - N/A   Light Drizzle
1:45 AM 41.0 °F 33.1 °F 41.0 °F 100% 29.96 in 4.0 mi NNE 15.0 mph - N/A   Light Drizzle
1:46 AM 41.0 °F 33.1 °F 41.0 °F 100% 29.95 in 4.0 mi NNE 15.0 mph - N/A   Light Drizzle
1:55 AM 41.2 °F 33.7 °F 41.0 °F 99% 29.95 in 4.0 mi NNE 13.8 mph - 0.00 in   Light Drizzle
2:07 AM 41.0 °F 33.9 °F 41.0 °F 100% 29.94 in 5.0 mi NNE 12.7 mph - N/A   Light Drizzle
2:31 AM 41.0 °F 33.9 °F 41.0 °F 100% 29.93 in 6.0 mi NNE 12.7 mph 20.7 mph N/A   Overcast
2:37 AM 41.0 °F 33.9 °F 41.0 °F 100% 29.93 in 6.0 mi NNE 12.7 mph - N/A   Light Drizzle
2:46 AM 41.0 °F 33.9 °F 41.0 °F 100% 29.93 in 6.0 mi NNE 12.7 mph - N/A   Overcast
2:55 AM 41.0 °F 33.5 °F 40.8 °F 99% 29.92 in 5.0 mi NNE 13.8 mph 20.7 mph 0.00 in   Overcast
3:29 AM 41.0 °F 33.5 °F 41.0 °F 100% 29.91 in 5.0 mi NNE 13.8 mph - N/A   Overcast
3:33 AM 41.0 °F 33.5 °F 41.0 °F 100% 29.91 in 5.0 mi NNE 13.8 mph - N/A   Overcast
3:55 AM 41.2 °F 33.7 °F 41.2 °F 100% 29.92 in 6.0 mi NNE 13.8 mph - 0.01 in   Overcast
4:29 AM 41.0 °F 34.3 °F 41.0 °F 100% 29.92 in 6.0 mi NNE 11.5 mph - N/A   Overcast
4:55 AM 41.2 °F 35.5 °F 41.2 °F 100% 29.91 in 9.0 mi NNE 9.2 mph - 0.00 in   Overcast
5:21 AM 41.0 °F 34.7 °F 41.0 °F 100% 29.92 in 10.0 mi NNE 10.4 mph - N/A   Overcast
5:55 AM 41.9 °F 36.3 °F 41.9 °F 100% 29.92 in 9.0 mi NNE 9.2 mph - N/A   Overcast
6:55 AM 42.8 °F 36.6 °F 42.8 °F 100% 29.92 in 10.0 mi NE 11.5 mph - N/A   Overcast
7:11 AM 42.8 °F 35.4 °F 42.8 °F 100% 29.91 in 10.0 mi NE 15.0 mph 20.7 mph N/A   Overcast
7:55 AM 43.3 °F 36.8 °F 43.3 °F 100% 29.91 in 10.0 mi NE 12.7 mph 17.3 mph N/A   Overcast
8:37 AM 42.8 °F 35.1 °F 42.8 °F 100% 29.91 in 10.0 mi NE 16.1 mph - N/A   Overcast
8:55 AM 43.9 °F 37.2 °F 43.9 °F 100% 29.90 in 10.0 mi NE 13.8 mph - N/A   Overcast
8:59 AM 44.6 °F 38.1 °F 44.6 °F 100% 29.91 in 10.0 mi NE 13.8 mph - N/A   Overcast
9:08 AM 44.6 °F 38.1 °F 44.6 °F 100% 29.91 in 10.0 mi NE 13.8 mph - N/A   Overcast
9:44 AM 44.6 °F 39.7 °F 44.6 °F 100% 29.92 in 7.0 mi NE 9.2 mph - N/A   Overcast
9:55 AM 44.8 °F 39.0 °F 44.8 °F 100% 29.92 in 10.0 mi NE 11.5 mph 19.6 mph N/A   Overcast
10:55 AM 45.3 °F 39.3 °F 45.3 °F 100% 29.93 in 10.0 mi NE 12.7 mph - N/A   Overcast
11:02 AM 44.6 °F 39.2 °F 44.6 °F 100% 29.93 in 10.0 mi NE 10.4 mph - N/A   Overcast
11:20 AM 46.4 °F 42.9 °F 46.4 °F 100% 29.94 in 10.0 mi NE 6.9 mph - N/A   Overcast
11:45 AM 46.4 °F 41.9 °F 46.4 °F 100% 29.93 in 10.0 mi NE 9.2 mph - N/A   Overcast
11:55 AM 47.7 °F - 47.5 °F 99% 29.93 in 10.0 mi NE 13.8 mph - N/A   Overcast
12:05 PM 48.2 °F - 48.2 °F 100% 29.93 in 10.0 mi NE 13.8 mph - N/A   Overcast
12:15 PM 48.2 °F - 48.2 °F 100% 29.93 in 10.0 mi NE 12.7 mph - N/A   Overcast
12:21 PM 48.2 °F - 48.2 °F 100% 29.94 in 10.0 mi NE 13.8 mph - N/A   Overcast
12:46 PM 48.2 °F - 48.2 °F 100% 29.94 in 10.0 mi NE 10.4 mph - N/A   Overcast
12:55 PM 49.1 °F - 48.2 °F 97% 29.93 in 10.0 mi NNE 13.8 mph - N/A   Overcast
1:55 PM 50.4 °F - 48.9 °F 95% 29.92 in 10.0 mi NE 13.8 mph - N/A   Overcast
2:27 PM 50.0 °F - 48.2 °F 94% 29.91 in 10.0 mi NNE 16.1 mph - N/A   Overcast
2:55 PM 49.3 °F - 48.2 °F 96% 29.91 in 10.0 mi NE 16.1 mph - N/A   Overcast
3:01 PM 50.0 °F - 48.2 °F 94% 29.91 in 10.0 mi NE 13.8 mph - N/A   Overcast
3:55 PM 49.3 °F - 48.6 °F 97% 29.91 in 10.0 mi NNE 16.1 mph 21.9 mph N/A   Overcast
3:58 PM 50.0 °F - 48.2 °F 94% 29.92 in 10.0 mi NE 13.8 mph 21.9 mph N/A   Overcast
4:55 PM 49.1 °F - 48.7 °F 99% 29.93 in 10.0 mi NE 11.5 mph - N/A   Overcast
5:06 PM 50.0 °F - 48.2 °F 94% 29.93 in 10.0 mi NE 16.1 mph 23.0 mph N/A   Overcast
5:34 PM 50.0 °F - 48.2 °F 94% 29.93 in 10.0 mi NE 15.0 mph - N/A   Overcast
5:53 PM 50.0 °F - 48.2 °F 94% 29.93 in 10.0 mi NE 13.8 mph - N/A   Overcast
5:55 PM 49.1 °F - 48.9 °F 99% 29.93 in 10.0 mi NE 16.1 mph - N/A   Overcast
6:07 PM 50.0 °F - 48.2 °F 94% 29.93 in 10.0 mi NE 13.8 mph - N/A   Overcast
6:51 PM 50.0 °F - 48.2 °F 94% 29.94 in 10.0 mi NE 13.8 mph - N/A   Overcast
6:55 PM 49.3 °F - 49.1 °F 99% 29.94 in 10.0 mi NE 12.7 mph - N/A   Overcast
7:04 PM 50.0 °F - 48.2 °F 94% 29.94 in 10.0 mi NE 12.7 mph - N/A   Overcast
7:13 PM 50.0 °F - 48.2 °F 94% 29.94 in 10.0 mi NE 10.4 mph - N/A   Overcast
7:50 PM 50.0 °F - 48.2 °F 94% 29.95 in 10.0 mi NNE 12.7 mph - N/A   Overcast
7:55 PM 49.5 °F - 48.7 °F 97% 29.95 in 10.0 mi NNE 12.7 mph - N/A   Overcast
8:36 PM 50.0 °F - 48.2 °F 94% 29.94 in 10.0 mi NE 13.8 mph - N/A   Overcast
8:49 PM 50.0 °F - 48.2 °F 94% 29.94 in 10.0 mi NE 13.8 mph 19.6 mph N/A   Overcast
8:55 PM 49.3 °F - 48.6 °F 97% 29.94 in 10.0 mi NE 10.4 mph 19.6 mph N/A   Overcast
9:55 PM 48.9 °F - 48.4 °F 98% 29.93 in 10.0 mi NE 10.4 mph - N/A   Overcast
10:10 PM 48.2 °F - 48.2 °F 100% 29.93 in 10.0 mi NE 8.1 mph - N/A   Overcast
10:55 PM 48.7 °F - 48.2 °F 98% 29.92 in 10.0 mi NNE 13.8 mph - N/A   Overcast
11:55 PM 48.9 °F - 48.4 °F 98% 29.94 in 10.0 mi East 6.9 mph - N/A   Overcast